• In Germany
  • List of Countries
  • For 7 days
  • Water Temperature
  • Satellite Maps
  • Weather Map
  • Weather Widgets
  • user-avatar
    Login

    Hourly Weather Yulara

    Today, 20 June, Wednesday

    Time Temperature Precipitation Wind Pressure Humidity
    00:00 +13°C° 0 mm 5 mps 722 mmHg 35%
    01:00 +12°C° 0 mm 4 mps 723 mmHg 40%
    02:00 +11°C° 0 mm 4 mps 723 mmHg 45%
    03:00 +10°C° 0 mm 4 mps 723 mmHg 52%
    04:00 +10°C° 0 mm 4 mps 723 mmHg 58%
    05:00 +8°C° 0 mm 4 mps 723 mmHg 64%
    06:00 +8°C° 0 mm 4 mps 723 mmHg 69%
    07:00 +9°C° 0 mm 5 mps 723 mmHg 68%
    08:00 +10°C° 0 mm 5 mps 724 mmHg 66%
    09:00 +13°C° 0 mm 6 mps 725 mmHg 62%
    10:00 +15°C° 0 mm 6 mps 724 mmHg 56%
    11:00 +16°C° 0 mm 5 mps 724 mmHg 50%
    12:00 +17°C° 0 mm 5 mps 724 mmHg 44%
    13:00 +19°C° 0 mm 5 mps 723 mmHg 41%
    14:00 +19°C° 0 mm 5 mps 723 mmHg 38%
    15:00 +20°C° 0 mm 5 mps 723 mmHg 33%
    16:00 +19°C° 0 mm 5 mps 723 mmHg 34%
    17:00 +17°C° 0 mm 4 mps 723 mmHg 35%
    18:00 +15°C° 0 mm 4 mps 723 mmHg 37%
    19:00 +14°C° 0 mm 5 mps 723 mmHg 37%
    20:00 +13°C° 0 mm 5 mps 723 mmHg 37%
    21:00 +12°C° 0 mm 5 mps 724 mmHg 38%
    22:00 +10°C° 0 mm 5 mps 724 mmHg 41%
    23:00 +9°C° 0 mm 5 mps 724 mmHg 44%

    Tomorrow, 21 June, Thursday

    Time Temperature Precipitation Wind Pressure Humidity
    00:00 +9°C° 0 mm 5 mps 724 mmHg 47%
    01:00 +8°C° 0 mm 4 mps 724 mmHg 52%
    02:00 +8°C° 0 mm 4 mps 724 mmHg 58%
    03:00 +7°C° 0 mm 4 mps 724 mmHg 63%
    04:00 +7°C° 0 mm 4 mps 724 mmHg 68%
    05:00 +6°C° 0 mm 4 mps 724 mmHg 74%
    06:00 +6°C° 0 mm 4 mps 724 mmHg 79%
    07:00 +7°C° 0 mm 4 mps 725 mmHg 74%
    08:00 +10°C° 0 mm 4 mps 725 mmHg 69%
    09:00 +10°C° 0 mm 5 mps 725 mmHg 64%
    10:00 +13°C° 0 mm 5 mps 725 mmHg 56%
    11:00 +14°C° 0 mm 5 mps 725 mmHg 48%
    12:00 +16°C° 0 mm 5 mps 724 mmHg 40%
    13:00 +18°C° 0 mm 4 mps 724 mmHg 37%
    14:00 +18°C° 0 mm 4 mps 723 mmHg 34%
    15:00 +19°C° 0 mm 4 mps 723 mmHg 31%
    16:00 +18°C° 0 mm 4 mps 723 mmHg 34%
    17:00 +15°C° 0 mm 4 mps 723 mmHg 37%
    18:00 +14°C° 0 mm 3 mps 723 mmHg 41%
    19:00 +13°C° 0 mm 4 mps 723 mmHg 44%
    20:00 +12°C° 0 mm 4 mps 724 mmHg 47%
    21:00 +11°C° 0 mm 4 mps 724 mmHg 50%
    22:00 +11°C° 0 mm 4 mps 724 mmHg 54%
    23:00 +10°C° 0 mm 4 mps 724 mmHg 57%

    Day after tomorrow, 22 June, Friday

    Time Temperature Precipitation Wind Pressure Humidity
    00:00 +10°C° 0 mm 4 mps 724 mmHg 60%
    01:00 +8°C° 0 mm 4 mps 724 mmHg 64%
    02:00 +8°C° 0 mm 4 mps 724 mmHg 68%
    03:00 +8°C° 0 mm 3 mps 724 mmHg 72%
    04:00 +8°C° 0 mm 3 mps 724 mmHg 74%
    05:00 +8°C° 0 mm 3 mps 724 mmHg 77%
    06:00 +7°C° 0 mm 3 mps 724 mmHg 79%
    07:00 +9°C° 0 mm 3 mps 724 mmHg 72%
    08:00 +10°C° 0 mm 4 mps 725 mmHg 66%
    09:00 +12°C° 0 mm 4 mps 725 mmHg 59%
    10:00 +13°C° 0 mm 4 mps 725 mmHg 52%
    11:00 +14°C° 0 mm 4 mps 725 mmHg 46%
    12:00 +17°C° 0 mm 4 mps 724 mmHg 39%
    13:00 +17°C° 0 mm 4 mps 724 mmHg 36%
    14:00 +18°C° 0 mm 4 mps 723 mmHg 33%
    15:00 +19°C° 0 mm 4 mps 723 mmHg 30%
    16:00 +17°C° 0 mm 4 mps 723 mmHg 33%
    17:00 +16°C° 0 mm 3 mps 723 mmHg 36%
    18:00 +13°C° 0 mm 3 mps 723 mmHg 39%
    19:00 +13°C° 0 mm 4 mps 724 mmHg 41%
    20:00 +12°C° 0 mm 4 mps 724 mmHg 43%
    21:00 +11°C° 0 mm 4 mps 724 mmHg 45%
    22:00 +11°C° 0 mm 4 mps 724 mmHg 47%
    23:00 +10°C° 0 mm 4 mps 724 mmHg 48%

    23 June, Saturday

    Time Temperature Precipitation Wind Pressure Humidity
    00:00 +8°C° 0 mm 4 mps 724 mmHg 50%
    01:00 +8°C° 0 mm 4 mps 724 mmHg 52%
    02:00 +7°C° 0 mm 4 mps 724 mmHg 54%
    03:00 +7°C° 0 mm 4 mps 724 mmHg 56%
    04:00 +7°C° 0 mm 3 mps 724 mmHg 58%
    05:00 +7°C° 0 mm 3 mps 724 mmHg 59%
    06:00 +7°C° 0 mm 3 mps 724 mmHg 61%
    07:00 +8°C° 0 mm 3 mps 725 mmHg 55%
    08:00 +8°C° 0 mm 4 mps 725 mmHg 50%
    09:00 +11°C° 0 mm 4 mps 726 mmHg 44%
    10:00 +12°C° 0 mm 4 mps 725 mmHg 40%
    11:00 +14°C° 0 mm 4 mps 725 mmHg 36%
    12:00 +17°C° 0 mm 4 mps 725 mmHg 32%
    13:00 +17°C° 0 mm 4 mps 724 mmHg 29%
    14:00 +17°C° 0 mm 5 mps 724 mmHg 27%
    15:00 +19°C° 0 mm 5 mps 723 mmHg 25%
    16:00 +17°C° 0 mm 4 mps 723 mmHg 27%
    17:00 +15°C° 0 mm 4 mps 723 mmHg 30%
    18:00 +13°C° 0 mm 4 mps 723 mmHg 32%
    19:00 +12°C° 0 mm 4 mps 724 mmHg 35%
    20:00 +12°C° 0 mm 4 mps 724 mmHg 37%
    21:00 +11°C° 0 mm 4 mps 725 mmHg 40%
    22:00 +10°C° 0 mm 4 mps 725 mmHg 42%
    23:00 +8°C° 0 mm 4 mps 725 mmHg 44%

    24 June, Sunday

    Time Temperature Precipitation Wind Pressure Humidity
    00:00 +8°C° 0 mm 4 mps 725 mmHg 47%
    01:00 +7°C° 0 mm 4 mps 725 mmHg 49%
    02:00 +7°C° 0 mm 4 mps 724 mmHg 51%
    03:00 +7°C° 0 mm 3 mps 724 mmHg 53%
    04:00 +7°C° 0 mm 3 mps 724 mmHg 55%
    05:00 +7°C° 0 mm 3 mps 724 mmHg 56%
    06:00 +7°C° 0 mm 3 mps 725 mmHg 57%
    07:00 +8°C° 0 mm 3 mps 725 mmHg 52%
    08:00 +10°C° 0 mm 4 mps 726 mmHg 47%
    09:00 +11°C° 0 mm 4 mps 726 mmHg 42%
    10:00 +13°C° 0 mm 4 mps 725 mmHg 38%
    11:00 +14°C° 0 mm 5 mps 725 mmHg 33%
    12:00 +16°C° 0 mm 5 mps 725 mmHg 29%
    13:00 +16°C° 0 mm 5 mps 724 mmHg 27%
    14:00 +17°C° 0 mm 5 mps 723 mmHg 25%
    15:00 +19°C° 0 mm 5 mps 723 mmHg 23%
    16:00 +16°C° 0 mm 5 mps 723 mmHg 26%
    17:00 +15°C° 0 mm 4 mps 723 mmHg 29%
    18:00 +13°C° 0 mm 4 mps 723 mmHg 32%
    19:00 +12°C° 0 mm 4 mps 724 mmHg 33%
    20:00 +12°C° 0 mm 4 mps 724 mmHg 35%
    21:00 +11°C° 0 mm 4 mps 725 mmHg 37%
    22:00 +10°C° 0 mm 4 mps 725 mmHg 37%
    23:00 +8°C° 0 mm 4 mps 725 mmHg 37%

    25 June, Monday

    Time Temperature Precipitation Wind Pressure Humidity
    00:00 +8°C° 0 mm 4 mps 725 mmHg 37%
    01:00 +8°C° 0 mm 3 mps 724 mmHg 38%
    02:00 +8°C° 0 mm 3 mps 724 mmHg 38%
    03:00 +7°C° 0 mm 3 mps 724 mmHg 39%
    04:00 +7°C° 0 mm 3 mps 724 mmHg 41%
    05:00 +7°C° 0 mm 3 mps 724 mmHg 42%
    06:00 +7°C° 0 mm 3 mps 725 mmHg 44%
    07:00 +9°C° 0 mm 3 mps 725 mmHg 41%
    08:00 +10°C° 0 mm 4 mps 726 mmHg 39%
    09:00 +12°C° 0 mm 4 mps 726 mmHg 36%
    10:00 +13°C° 0 mm 5 mps 726 mmHg 34%
    11:00 +15°C° 0 mm 5 mps 725 mmHg 32%
    12:00 +17°C° 0 mm 6 mps 725 mmHg 30%
    13:00 +17°C° 0 mm 6 mps 724 mmHg 29%
    14:00 +19°C° 0 mm 6 mps 724 mmHg 27%
    15:00 +19°C° 0 mm 6 mps 723 mmHg 26%
    16:00 +17°C° 0 mm 6 mps 724 mmHg 29%
    17:00 +15°C° 0 mm 5 mps 724 mmHg 32%
    18:00 +14°C° 0 mm 5 mps 724 mmHg 35%
    19:00 +13°C° 0 mm 5 mps 725 mmHg 37%
    20:00 +12°C° 0 mm 5 mps 725 mmHg 39%
    21:00 +10°C° 0 mm 5 mps 726 mmHg 41%
    22:00 +10°C° 0 mm 5 mps 726 mmHg 42%
    23:00 +9°C° 0 mm 5 mps 726 mmHg 44%
    Show more